Weather History for KKLS - October, 2012

Change the Weather History Date:

Thursday, October 25, 2012

  Actual Average (KSPB) Record (KSPB)
Temperature  
Mean Temperature 47 °F -  
Max Temperature 53 °F - - ()
Min Temperature 41 °F - - ()
Degree Days  
Heating Degree Days 18    
Month to date heating degree days  
Since 1 July heating degree days  
Cooling Degree Days 0    
Month to date cooling degree days  
Year to date cooling degree days  
Moisture  
Dew Point 41 °F    
Average Humidity 79    
Maximum Humidity 87    
Minimum Humidity 62    
Precipitation  
Precipitation 0.04 in - - ()
Month to date precipitation  
Year to date precipitation  
Sea Level Pressure  
Sea Level Pressure 30.35 in    
Wind  
Wind Speed 4 mph (SSE)    
Max Wind Speed 10 mph    
Max Gust Speed -    
Visibility 10 miles    
Events      
T = Trace of Precipitation, MM = Missing Value Source: NWS Daily Summary

Daily Weather History Graph

Daily Weather History Graph

Search for Another Location

Airport or City:

Trip Planner

Search our weather history database for the weather conditions in past years. The results will help you decide how hot, cold, wet, or windy it might be!

Date:

Astronomy

Oct. 25, 2012 Rise Set
Actual Time 7:43 AM PDT 6:07 PM PDT
Civil Twilight 7:12 AM PDT 6:37 PM PDT
Nautical Twilight 6:37 AM PDT 7:12 PM PDT
Astronomical Twilight 6:02 AM PDT 7:47 PM PDT
Moon 4:05 PM PDT (10/25) 3:33 AM PDT (10/25)
Length of Visible Light 11h 25m
Length of Day
10h 23m
Waxing Gibbous, 85% of the Moon is Illuminated
Oct 25
Waxing Gibbous
Oct 29
Full
Nov 6
Last Quarter
Nov 13
New
Nov 20
First Quarter

Hourly Weather History & Observations

Time (PDT) Temp. Windchill Dew Point Humidity Pressure Visibility Wind Dir Wind Speed Gust Speed Precip Events Conditions
12:35 AM 46.4 °F 44.3 °F 41.0 °F 81% 30.19 in 10.0 mi SSE 4.6 mph - N/A   Mostly Cloudy
12:55 AM 46.4 °F 45.2 °F 41.0 °F 81% 30.20 in 10.0 mi South 3.5 mph - N/A   Overcast
1:15 AM 44.6 °F - 41.0 °F 87% 30.21 in 10.0 mi Calm Calm - N/A   Overcast
1:35 AM 44.6 °F - 39.2 °F 81% 30.22 in 10.0 mi Calm Calm - N/A   Overcast
1:55 AM 44.6 °F 41.4 °F 39.2 °F 81% 30.23 in 10.0 mi SSE 5.8 mph - N/A   Overcast
2:15 AM 44.6 °F 40.7 °F 41.0 °F 87% 30.23 in 10.0 mi SSE 6.9 mph - N/A   Overcast
2:35 AM 46.4 °F 42.4 °F 41.0 °F 81% 30.23 in 10.0 mi SSE 8.1 mph - N/A   Overcast
2:55 AM 46.4 °F 43.5 °F 39.2 °F 76% 30.24 in 10.0 mi SSE 5.8 mph - N/A   Overcast
3:15 AM 46.4 °F 44.3 °F 41.0 °F 81% 30.25 in 10.0 mi SSE 4.6 mph - N/A   Overcast
3:35 AM 46.4 °F 44.3 °F 39.2 °F 76% 30.26 in 10.0 mi SE 4.6 mph - N/A   Overcast
3:55 AM 46.4 °F 43.5 °F 39.2 °F 76% 30.27 in 10.0 mi SSE 5.8 mph - N/A   Overcast
4:35 AM 44.6 °F 43.1 °F 39.2 °F 81% 30.28 in 10.0 mi SE 3.5 mph - N/A   Overcast
4:55 AM 44.6 °F 42.2 °F 39.2 °F 81% 30.29 in 10.0 mi SSE 4.6 mph - N/A   Overcast
5:15 AM 44.6 °F 40.2 °F 39.2 °F 81% 30.29 in 10.0 mi SE 8.1 mph - N/A   Mostly Cloudy
5:35 AM 44.6 °F 40.7 °F 39.2 °F 81% 30.30 in 10.0 mi SSE 6.9 mph - N/A   Mostly Cloudy
5:55 AM 44.6 °F 41.4 °F 39.2 °F 81% 30.30 in 10.0 mi SSE 5.8 mph - N/A   Partly Cloudy
6:35 AM 44.6 °F 42.2 °F 39.2 °F 81% 30.32 in 10.0 mi ESE 4.6 mph - N/A   Clear
6:55 AM 42.8 °F - 39.2 °F 87% 30.33 in 10.0 mi Calm Calm - N/A   Clear
7:15 AM 41.0 °F - 37.4 °F 87% 30.34 in 10.0 mi Calm Calm - N/A   Clear
7:55 AM 42.8 °F 41.1 °F 39.2 °F 87% 30.35 in 10.0 mi SE 3.5 mph - N/A   Mostly Cloudy
8:35 AM 42.8 °F - 39.2 °F 87% 30.37 in 10.0 mi Calm Calm - N/A   Mostly Cloudy
8:55 AM 44.6 °F - 39.2 °F 81% 30.38 in 10.0 mi Calm Calm - N/A   Scattered Clouds
9:15 AM 46.4 °F 44.3 °F 41.0 °F 81% 30.39 in 10.0 mi SE 4.6 mph - N/A   Partly Cloudy
9:35 AM 46.4 °F - 41.0 °F 81% 30.40 in 10.0 mi Calm Calm - N/A   Mostly Cloudy
9:55 AM 46.4 °F - 41.0 °F 81% 30.40 in 10.0 mi Calm Calm - N/A   Mostly Cloudy
10:15 AM 46.4 °F - 42.8 °F 87% 30.40 in 10.0 mi Calm Calm - N/A   Overcast
10:35 AM 48.2 °F - 42.8 °F 82% 30.40 in - Calm Calm - N/A   Overcast
10:55 AM 48.2 °F - 42.8 °F 82% 30.41 in - Calm Calm - N/A   Overcast
11:15 AM 48.2 °F - 42.8 °F 82% 30.42 in - South 5.8 mph - 0.04 in   Overcast
11:35 AM 48.2 °F - 42.8 °F 82% 30.42 in - South 8.1 mph - 0.04 in   Overcast
11:55 AM 50.0 °F - 42.8 °F 76% 30.42 in 10.0 mi South 10.4 mph - 0.04 in   Mostly Cloudy
12:15 PM 50.0 °F - 42.8 °F 76% 30.42 in 10.0 mi SSE 8.1 mph - N/A   Overcast
12:35 PM 50.0 °F - 42.8 °F 76% 30.42 in 10.0 mi South 9.2 mph - N/A   Overcast
12:55 PM 51.8 °F - 42.8 °F 71% 30.42 in 10.0 mi SSE 9.2 mph - N/A   Overcast
1:15 PM 51.8 °F - 42.8 °F 71% 30.42 in 10.0 mi SSE 10.4 mph - N/A   Overcast
1:35 PM 51.8 °F - 42.8 °F 71% 30.42 in 10.0 mi SSE 9.2 mph - N/A   Scattered Clouds
1:55 PM 53.6 °F - 42.8 °F 67% 30.42 in - South 6.9 mph - N/A   Scattered Clouds
2:15 PM 53.6 °F - 42.8 °F 67% 30.42 in 10.0 mi South 6.9 mph - N/A   Partly Cloudy
2:35 PM 53.6 °F - 42.8 °F 67% 30.42 in 10.0 mi South 9.2 mph - N/A   Clear
2:55 PM 53.6 °F - 42.8 °F 67% 30.41 in 10.0 mi South 8.1 mph - N/A   Clear
3:15 PM 53.6 °F - 42.8 °F 67% 30.41 in 10.0 mi SSW 5.8 mph - N/A   Clear
3:35 PM 53.6 °F - 42.8 °F 67% 30.41 in 10.0 mi SSW 4.6 mph - N/A   Clear
3:55 PM 53.6 °F - 42.8 °F 67% 30.41 in 10.0 mi South 6.9 mph - N/A   Clear
4:15 PM 53.6 °F - 41.0 °F 62% 30.41 in 10.0 mi South 8.1 mph - N/A   Clear
4:35 PM 53.6 °F - 42.8 °F 67% 30.40 in 10.0 mi South 4.6 mph - N/A   Clear
4:55 PM 53.6 °F - 42.8 °F 67% 30.40 in 10.0 mi SSE 5.8 mph - N/A   Clear
5:15 PM 51.8 °F - 42.8 °F 71% 30.40 in 10.0 mi South 5.8 mph - N/A   Clear
5:35 PM 51.8 °F - 42.8 °F 71% 30.39 in 7.0 mi SSE 4.6 mph - N/A   Clear
5:55 PM 51.8 °F - 42.8 °F 71% 30.39 in 10.0 mi Calm Calm - N/A   Clear
6:15 PM 50.0 °F - 42.8 °F 76% 30.38 in 2.5 mi Calm Calm - N/A   Clear
6:35 PM 48.2 °F - 42.8 °F 82% 30.38 in 10.0 mi Calm Calm - N/A   Clear
6:55 PM 48.2 °F - 42.8 °F 82% 30.37 in 10.0 mi Calm Calm - N/A   Clear
7:15 PM 46.4 °F - 41.0 °F 81% 30.37 in 10.0 mi Calm Calm - N/A   Clear
7:35 PM 44.6 °F - 41.0 °F 87% 30.37 in 10.0 mi Calm Calm - N/A   Clear
7:55 PM 44.6 °F - 41.0 °F 87% 30.37 in 10.0 mi Calm Calm - N/A   Clear
8:15 PM 44.6 °F - 39.2 °F 81% 30.37 in 10.0 mi Calm Calm - N/A   Clear
8:35 PM 44.6 °F - 39.2 °F 81% 30.36 in 10.0 mi Calm Calm - N/A   Clear
8:55 PM 42.8 °F - 39.2 °F 87% 30.36 in 10.0 mi Calm Calm - N/A   Clear
9:15 PM 42.8 °F - 39.2 °F 87% 30.36 in 10.0 mi Calm Calm - N/A   Clear
9:35 PM 42.8 °F - 39.2 °F 87% 30.36 in 10.0 mi Calm Calm - N/A   Clear
10:15 PM 44.6 °F - 39.2 °F 81% 30.35 in 10.0 mi Calm Calm - N/A   Clear
10:35 PM 44.6 °F - 39.2 °F 81% 30.34 in 10.0 mi Calm Calm - N/A   Clear
10:55 PM 42.8 °F - 39.2 °F 87% 30.33 in 10.0 mi Calm Calm - N/A   Clear
11:15 PM 44.6 °F - 39.2 °F 81% 30.33 in 10.0 mi Calm Calm - N/A   Clear
11:35 PM 44.6 °F 43.1 °F 39.2 °F 81% 30.34 in 10.0 mi NE 3.5 mph - N/A   Clear
11:55 PM 44.6 °F - 39.2 °F 81% 30.33 in 10.0 mi Calm Calm - N/A   Clear